Notices

What's New in latest Release from April 7th, 2021:

- Updated Glossary, including Speed of Maximum Gust, and Total Hourly Precipitation

- Updated national and regional climate services offices contacts and prices information

- Addition of station inventory lists for 1981-2010, 1971-2000, and 1961-1990 Normals.

If you haven't already, please take our survey and provide feedback about our website: https://eccc.sondage-survey.ca/f/LanguageSelection.aspx?s=442ca660-fcf1-47c0-95a9-59707d6fd709

Hourly Data Report for March 19, 2010

HALIFAX STANFIELD INT'L A
NOVA SCOTIA

44°52'48.060" N
63°30'00.050" W
145.40 m
8202250
71395
YHZ

Download Data

Hourly Data (March 2010)
Hourly Data Report for March 19, 2010
TIME
LST
Temp Definition
°C
Dew Point Definition
°C
Rel Hum Definition
%
Precip. Amount Definition
mm

Wind Dir Definition
10's deg

Wind Spd Definition
km/h
Visibility Definition
km
Stn Press Definition
kPa
Hmdx Definition


Wind Chill Definition


Weather Definition


00:00 2.3 -5.5 56   9 6 24.1 98.93     Mainly Clear
01:00 0.9 -4.5 67   19 7 24.1 98.98     Mostly Cloudy
02:00 -0.6 -5.5 69   18 11 24.1 99.04   -4 Mainly Clear
03:00 -0.9 -5.8 69   20 6 24.1 99.07   -3 Clear
04:00 -1.0 -5.4 72     0 24.1 99.13     Clear
05:00 -1.1 -5.0 75   36 7 24.1 99.17   -4 Clear
06:00 -1.3 -5.0 76   27 6 24.1 99.22   -4 Clear
07:00 -0.1 -4.4 73   25 7 24.1 99.29   -3 Clear
08:00 4.0 -3.5 58   26 6 24.1 99.32     Mainly Clear
09:00 4.8 -4.2 52   32 9 24.1 99.38     Mainly Clear
10:00 6.2 -4.3 47   34 7 24.1 99.43     Mainly Clear
11:00 8.2 -3.7 43   34 11 24.1 99.47     Mainly Clear
12:00 9.1 -6.6 32   32 19 24.1 99.46     Mainly Clear
13:00 10.1 -6.8 30   35 11 24.1 99.41     Mainly Clear
14:00 10.6 -6.6 29   25 11 24.1 99.38     Mainly Clear
15:00 11.2 -5.7 30   34 20 24.1 99.38     Mainly Clear
16:00 11.1 -5.7 30   31 17 24.1 99.37     Mainly Clear
17:00 10.5 -5.7 31   36 9 24.1 99.39     Mainly Clear
18:00 7.8 -4.1 43   15 11 24.1 99.43     Mainly Clear
19:00 3.8 -3.9 57   16 13 24.1 99.49     Mainly Clear
20:00 2.0 -3.5 67   16 15 24.1 99.52     Mainly Clear
21:00 0.3 -2.9 79   15 17 24.1 99.55     Mainly Clear
22:00 0.2 -2.3 83   17 20 24.1 99.56     Mainly Clear
23:00 -0.4 -2.2 88   18 19 19.3 99.54   -6 Clear

Notes on Data Quality.

Legend

  • E = Estimated
  • M = Missing
  • NA = Not Available*
  • [empty] = Indicates an unobserved value
Date modified: